Location: Castell Newydd Emlyn
(52.0333°N, 4.4667°W)
Time: 01:21:44
(UTC+00:00)

Daily predictions for brighter satellites

Satellite Brightness Start Highest point End
(mag) Time Altitude Azimuth Time Altitude Azimuth Time Altitude Azimuth
Cosmos 2227 Rocket 2.2 00:00:49 10° NW 00:06:30 70° WSW 00:10:10 22° SSE
STARLINK-1338 3.4 00:02:42 10° WSW 00:06:43 86° SSE 00:10:42 10° ENE
STARLINK-1216 4.3 00:03:47 10° W 00:07:35 35° SW 00:08:47 29° S
Landsat 4 4.1 00:04:12 10° NNE 00:07:50 48° E 00:09:24 29° SSE
Cosmos 1763 Rocket 4.2 00:05:57 22° SSE 00:08:33 37° ESE 00:13:12 10° NE
STARLINK-52 3.2 00:06:40 10° W 00:09:53 72° N 00:13:06 10° E
Cosmos 2084 Rocket 3.8 00:06:01 10° NW 00:10:29 70° NE 00:14:57 10° SE
Cosmos 1356 Rocket 3.4 00:07:25 10° NNW 00:11:40 79° W 00:13:55 27° S
STARLINK-1237 4.4 00:08:47 10° W 00:12:32 33° SW 00:13:34 29° S
SL-14 R/B 3.3 00:11:47 26° SSW 00:13:48 69° WNW 00:17:39 10° N
STARLINK-1371 3.4 00:11:04 10° WSW 00:15:02 90° SW 00:19:01 10° ENE
Cosmos 2084 4.5 00:11:43 10° WSW 00:16:04 49° NW 00:20:26 10° NE
STARLINK-1202 4.4 00:13:48 10° W 00:17:29 31° SW 00:18:21 28° S
SL-16 R/B 4.3 00:13:36 10° ESE 00:18:39 27° NE 00:23:45 10° N
STARLINK-1341 3.5 00:15:26 10° WSW 00:19:26 88° N 00:23:25 10° ENE
Nadezhda 1 Rocket 4.0 00:14:48 10° N 00:21:05 89° E 00:25:27 21° S
CZ-4 R/B 4.5 00:17:43 10° NNE 00:22:16 43° E 00:24:50 23° SSE
Cosmos 1300 3.4 00:18:50 10° NNW 00:22:27 41° W 00:24:09 25° SSW
STARLINK-1374 3.5 00:19:46 10° WSW 00:23:47 87° NNW 00:27:48 10° ENE
STARLINK 1040 3.8 00:26:21 25° ESE 00:26:21 25° ESE 00:27:49 10° E
STARLINK-1444 2.0 00:23:22 10° WNW 00:25:32 76° N 00:26:52 20° E
STARLINK-1452 2.0 00:24:01 10° WNW 00:26:10 76° N 00:27:17 24° E
Cosmos 2285 Rocket 4.2 00:20:04 10° NNW 00:26:28 75° ENE 00:31:55 15° SSE
STARLINK-1392 1.9 00:24:49 10° WNW 00:26:55 77° NNE 00:27:26 45° E
STARLINK-1399 1.9 00:24:52 10° WNW 00:26:58 77° N 00:27:37 39° E
STARLINK-1393 1.9 00:24:54 10° WNW 00:27:00 77° N 00:27:35 42° E
STARLINK-1394 1.9 00:24:56 10° WNW 00:27:02 77° N 00:27:37 42° E
STARLINK-1397 1.9 00:24:58 10° WNW 00:27:05 77° NNE 00:27:44 38° E
STARLINK-1395 1.9 00:25:01 10° WNW 00:27:05 77° NNE 00:27:24 57° ENE
STARLINK-1396 1.9 00:24:59 10° WNW 00:27:06 77° N 00:27:42 40° E
STARLINK-1414 1.9 00:25:00 10° WNW 00:27:06 77° N 00:27:36 46° E
STARLINK-1408 1.9 00:25:03 10° WNW 00:27:09 77° N 00:27:38 46° E
STARLINK-1404 1.9 00:25:05 10° WNW 00:27:11 77° NNE 00:27:49 39° E
STARLINK-1416 1.9 00:25:06 10° WNW 00:27:12 77° N 00:27:44 44° E
STARLINK-1415 2.0 00:25:06 10° WNW 00:27:13 77° N 00:27:56 36° E
STARLINK-1406 1.9 00:25:09 10° WNW 00:27:15 77° N 00:27:42 48° E
STARLINK-1450 2.0 00:25:08 10° WNW 00:27:16 77° N 00:28:00 35° E
STARLINK-1401 2.0 00:25:09 10° WNW 00:27:16 77° N 00:28:00 35° E
STARLINK-1417 2.0 00:25:13 10° WNW 00:27:20 77° NNE 00:28:04 35° E
STARLINK-1413 1.9 00:25:14 10° WNW 00:27:21 77° N 00:28:05 35° E
STARLINK-1402 1.9 00:25:14 10° WNW 00:27:21 77° N 00:28:04 36° E
STARLINK-1419 1.9 00:25:15 10° WNW 00:27:22 77° N 00:27:59 39° E
STARLINK-1422 1.9 00:25:20 10° WNW 00:27:27 77° N 00:28:09 36° E
STARLINK-1453 2.0 00:25:21 10° WNW 00:27:29 77° N 00:28:18 32° E
STARLINK-1398 2.0 00:25:22 10° WNW 00:27:31 77° N 00:28:28 28° E
STARLINK-1420 2.0 00:25:24 10° WNW 00:27:32 77° NNE 00:28:17 34° E
STARLINK-1460 2.0 00:25:27 10° WNW 00:27:34 77° N 00:28:21 34° E
STARLINK-1440 2.0 00:25:27 10° WNW 00:27:34 77° NNE 00:28:21 33° E
STARLINK-1436 (VISORSAT) 2.0 00:25:27 10° WNW 00:27:35 77° N 00:28:34 28° E
STARLINK-1410 1.9 00:25:31 10° WNW 00:27:38 77° N 00:28:23 35° E
STARLINK-1423 1.9 00:25:32 10° WNW 00:27:39 77° N 00:28:16 40° E
STARLINK-1421 1.9 00:25:33 10° WNW 00:27:39 77° N 00:28:16 40° E
STARLINK-1400 1.9 00:25:32 10° WNW 00:27:39 77° N 00:28:24 35° E
STARLINK-1454 1.9 00:25:33 10° WNW 00:27:40 77° N 00:28:26 34° E
STARLINK-1458 1.9 00:25:36 10° WNW 00:27:44 77° NNE 00:28:24 37° E
STARLINK-1445 2.0 00:25:38 10° WNW 00:27:46 77° N 00:28:35 32° E
STARLINK-1405 1.9 00:25:43 10° WNW 00:27:47 77° N 00:28:09 55° E
STARLINK-1446 2.0 00:25:41 10° WNW 00:27:48 77° N 00:28:37 33° E
STARLINK-1407 1.9 00:25:40 10° WNW 00:27:48 77° NNE 00:28:35 34° E
STARLINK-1370 1.9 00:25:43 10° WNW 00:27:51 77° NNE 00:28:37 34° E
STARLINK-1439 1.9 00:25:47 10° WNW 00:27:51 77° N 00:28:12 55° E
STARLINK-1456 1.9 00:25:45 10° WNW 00:27:52 77° N 00:28:32 38° E
STARLINK-1457 1.9 00:25:45 10° WNW 00:27:52 77° N 00:28:33 37° E
STARLINK-1451 1.9 00:25:45 10° WNW 00:27:52 77° N 00:28:32 38° E
STARLINK-1409 1.9 00:25:45 10° WNW 00:27:52 77° N 00:28:33 37° E
STARLINK-1455 1.9 00:25:46 10° WNW 00:27:54 77° N 00:28:41 33° E
STARLINK-1447 1.9 00:25:46 10° WNW 00:27:54 77° NNE 00:28:41 33° E
STARLINK-1437 1.9 00:25:47 10° WNW 00:27:55 77° NNE 00:28:38 36° E
STARLINK-1441 2.0 00:25:48 10° WNW 00:27:56 77° N 00:28:44 33° E
STARLINK-1443 2.0 00:25:51 10° WNW 00:27:59 78° N 00:28:52 30° E
STARLINK-1351 1.9 00:25:53 10° WNW 00:28:00 78° N 00:28:48 33° E
STARLINK-1418 1.9 00:25:53 10° WNW 00:28:00 78° N 00:28:47 34° E
STARLINK-1403 2.0 00:25:53 10° WNW 00:28:01 78° N 00:28:52 32° E
STARLINK-1434 2.0 00:25:54 10° WNW 00:28:01 78° N 00:28:54 31° E
STARLINK-1442 2.0 00:25:54 10° WNW 00:28:02 78° N 00:28:50 33° E
STARLINK-1339 3.5 00:24:02 10° W 00:28:02 85° N 00:32:02 10° ENE
STARLINK-1448 1.9 00:25:56 10° WNW 00:28:04 78° N 00:28:51 33° E
STARLINK-1433 1.9 00:25:56 10° WNW 00:28:04 78° N 00:28:51 34° E
STARLINK-1449 2.0 00:25:59 10° WNW 00:28:07 78° N 00:28:57 32° E
STARLINK-1438 1.9 00:26:02 10° WNW 00:28:09 78° N 00:28:49 38° E
STARLINK-1411 1.9 00:26:09 10° WNW 00:28:17 78° N 00:29:01 35° E
STARLINK-1412 1.9 00:26:09 10° WNW 00:28:17 78° N 00:29:05 33° E
CZ-2D R/B 4.3 00:28:13 10° NE 00:30:41 13° E 00:33:10 10° ESE
Cosmos-2242 3.9 00:27:16 10° N 00:31:20 41° ENE 00:34:23 16° SE
Meteor 2-16 Rocket 4.5 00:27:14 22° SSW 00:31:27 82° W 00:37:36 10° N
Meteor 2-10 Rocket 3.6 00:26:38 10° N 00:31:49 73° ENE 00:35:16 21° SSE
STARLINK-1377 3.5 00:28:27 10° W 00:32:28 83° N 00:36:29 10° E
YAOGAN 11 4.3 00:32:04 26° S 00:34:17 56° WSW 00:38:32 10° NNW
BREEZE-M R/B 3.4 00:28:03 10° WSW 00:35:14 56° S 00:38:50 10° E
USA 215 3.2 00:30:07 10° SE 00:36:39 66° SW 00:43:11 10° WNW
STARLINK-1353 3.6 00:32:46 10° W 00:36:48 82° N 00:40:49 10° E
Cosmos 1626 Rocket 3.5 00:34:39 26° SSW 00:37:03 85° W 00:41:29 10° N
STARLINK-60 2.8 00:34:45 10° WNW 00:37:56 86° SSW 00:41:08 10° ESE
FALCON 9 DEB 3.3 00:34:50 10° W 00:38:16 73° N 00:41:44 10° E
STARLINK-1375 3.6 00:37:09 10° W 00:41:10 81° N 00:45:12 10° E
SeaSat 1 3.1 00:38:01 10° NNE 00:42:51 54° NW 00:47:21 12° SW
Cosmos 540 Rocket 4.3 00:41:07 20° SSE 00:44:02 38° ESE 00:48:46 10° NE
STARLINK-1350 3.6 00:41:29 10° W 00:45:30 80° N 00:49:32 10° E
NOSS 7 (H) 4.0 00:46:44 32° SW 00:47:58 79° SE 00:50:56 10° NE
Helios 1B rocket 2.6 00:44:02 10° NNE 00:48:10 65° ESE 00:50:24 26° S
SL-08 ROCKET BODY 4.3 00:45:02 22° SSW 00:48:59 81° W 00:54:53 10° N
STARLINK-1352 3.6 00:45:44 10° W 00:49:45 79° N 00:53:47 10° E
ALOS 2 4.5 00:51:58 14° SW 00:54:08 19° W 00:57:16 10° NW
STARLINK-1368 3.6 00:50:20 10° W 00:54:21 78° N 00:58:24 10° E
Cosmos 1980 Rocket 2.9 00:51:50 20° S 00:55:14 42° ESE 01:00:33 10° NE
Uosat 12 SS-18 rocket 4.3 00:51:16 10° NW 00:55:27 51° SW 00:58:02 22° SSE
ERBS 3.6 00:52:45 10° W 00:55:10 23° SW 00:55:10 23° SW
Meteor 1-29 3.4 00:53:25 10° NNE 00:56:42 48° E 00:58:11 27° SSE
Cosmos 468 Rocket 4.0 00:54:20 21° SSW 00:57:48 81° WNW 01:02:58 10° NNE
Cosmos 1626 4.0 00:55:23 13° WSW 00:57:49 23° WNW 01:00:50 10° NNW
Cosmos 1455 2.1 00:54:25 10° NNW 00:58:10 76° W 01:00:05 27° S
STARLINK-1369 3.7 00:54:46 10° W 00:58:48 77° N 01:02:50 10° E
STARLINK-55 3.6 01:00:33 32° S 01:01:02 34° SSE 01:04:00 10° E
STARLINK-1274 4.4 01:00:56 25° SSE 01:01:20 25° SE 01:04:19 10° E
Cosmos 1812 Rocket 4.0 00:57:31 10° NNW 01:01:49 49° W 01:04:12 24° SSW
Cosmos 1328 4.4 00:59:35 22° SSE 01:01:51 49° E 01:05:43 10° NNE
STARLINK-43 3.3 01:00:05 22° SW 01:02:15 58° SSE 01:05:54 10° ENE
STARLINK-1372 3.7 00:59:00 10° W 01:03:01 77° N 01:07:03 10° E
Cosmos 1937 Rocket 3.9 00:58:55 10° NNW 01:03:59 49° WSW 01:07:10 22° S
STARLINK-1291 4.4 01:04:15 25° SSE 01:05:01 28° SE 01:08:15 10° E
Cosmos 1745 Rocket 4.2 01:01:26 19° SSW 01:05:49 62° WNW 01:11:57 10° N
Lacrosse 4 Rocket 2.5 01:02:05 10° NW 01:05:50 29° WSW 01:07:19 23° SSW
Cosmos 2369 3.7 01:02:04 21° SSW 01:05:56 79° ESE 01:11:38 10° NNE
STARLINK-1378 3.7 01:03:38 10° W 01:07:40 76° N 01:11:43 10° E
Cosmos 1703 3.5 01:05:53 24° S 01:08:05 62° E 01:11:58 10° NNE
STARLINK-1264 4.4 01:07:26 26° S 01:08:19 29° SE 01:11:35 10° E
Cosmos 2263 Rocket 2.6 01:03:01 10° NNW 01:08:37 63° NE 01:14:09 10° SE
Timation 1 Rocket 4.3 01:04:08 10° NNW 01:10:10 88° WSW 01:16:08 10° SSE
STARLINK-29 2.8 01:07:31 10° WNW 01:10:44 87° SSW 01:13:57 10° ESE
Cosmos 1825 Rocket 3.6 01:08:39 23° S 01:11:17 70° E 01:15:38 10° NNE
STARLINK-1267 4.3 01:10:40 26° S 01:11:39 30° SE 01:14:58 10° E
SL-4 R/B 2.3 01:07:19 10° W 01:12:08 64° SSW 01:16:51 10° ESE
Cosmos 2297 Rocket 3.6 01:07:57 10° NW 01:12:10 22° WSW 01:14:45 16° SW
STARLINK-1379 3.7 01:08:08 10° W 01:12:10 76° N 01:16:13 10° E
STARLINK-28 3.3 01:11:33 32° SSW 01:12:31 42° SSE 01:15:35 10° E
Cosmos 1898 Rocket 4.5 01:08:01 10° NW 01:12:42 32° WSW 01:15:28 20° SSW
USA 229 DEB 4.0 01:06:39 10° NW 01:13:52 82° NE 01:21:27 10° SE
USA 229 4.0 01:06:46 10° NW 01:13:58 81° NE 01:21:34 10° SE
Cosmos 1656 4.2 01:09:18 14° SW 01:14:10 56° NW 01:19:40 10° NNE
NOSS 3-1 (C) 4.1 01:07:25 10° NW 01:14:40 87° NE 01:23:11 10° SE
Cosmos 1602 Rocket 4.1 01:12:31 20° SW 01:15:11 47° WNW 01:19:24 10° N
STARLINK-1329 3.7 01:11:56 10° W 01:15:59 76° N 01:20:02 10° E
Cosmos 372 Rocket 3.9 01:11:26 10° NNW 01:16:36 78° WSW 01:20:47 16° SSE
STARLINK-1207 4.2 01:17:09 26° S 01:18:23 33° SSE 01:21:47 10° E
PSLV R/B 3.8 01:14:27 10° N 01:18:53 65° WNW 01:21:39 21° SSW
STARLINK-1362 3.7 01:16:28 10° W 01:20:31 76° N 01:24:34 10° E
CZ-4C R/B 2.3 01:16:43 14° SW 01:21:16 79° NW 01:27:38 10° NE
STARLINK-1266 4.1 01:20:25 26° S 01:21:46 35° SSE 01:25:12 10° E
Cosmos 2360 4.2 01:17:45 20° SSW 01:21:47 80° ESE 01:27:32 10° NNE
BREEZE-M DEB (TANK) 4.1 01:23:14 12° SE 01:23:14 12° SE 01:23:40 10° ESE
STARLINK-33 3.2 01:21:41 31° SSW 01:22:43 43° SSE 01:25:42 10° E
NOSS 3-1 (A) 4.3 01:15:36 10° NW 01:22:48 74° NE 01:31:14 10° SE
STARLINK-1373 3.7 01:21:01 10° W 01:25:03 76° N 01:29:06 10° E
STARLINK-1284 4.0 01:23:41 25° SSW 01:25:09 36° SSE 01:28:38 10° E
STARLINK-1320 3.0 01:22:14 10° W 01:25:21 74° N 01:28:29 10° E
STARLINK-1322 3.0 01:22:35 10° W 01:25:42 74° N 01:28:50 10° E
Alouette 2 Rocket 4.0 01:21:02 10° NNW 01:25:54 48° W 01:28:04 23° SSW
STARLINK-1324 3.0 01:22:54 10° W 01:26:01 74° N 01:29:09 10° E
STARLINK-26 3.3 01:24:28 25° SW 01:26:08 50° SSE 01:29:29 10° ENE
STARLINK-1294 3.0 01:23:13 10° W 01:26:20 74° N 01:29:29 10° E
BREEZE-M DEB (TANK) 1.2 01:23:27 10° WSW 01:26:23 51° S 01:28:37 10° E
STARLINK-1261 3.0 01:23:35 10° W 01:26:43 74° N 01:29:50 10° E
STARLINK-1325 3.0 01:23:56 10° W 01:27:04 74° N 01:30:11 10° E
STARLINK-1333 3.0 01:24:18 10° W 01:27:26 74° N 01:30:34 10° E
STARLINK-1334 3.0 01:24:36 10° W 01:27:43 74° N 01:30:50 10° E
STARLINK-1326 3.0 01:24:55 10° W 01:28:02 74° N 01:31:10 10° E
STARLINK-1323 3.0 01:25:18 10° W 01:28:26 74° N 01:31:34 10° E
STARLINK-1258 4.0 01:26:59 25° SSW 01:28:34 38° SSE 01:32:04 10° E
STARLINK-1349 3.0 01:25:36 10° W 01:28:44 75° N 01:31:51 10° E
STARLINK-1336 3.0 01:25:55 10° W 01:29:03 75° N 01:32:11 10° E
Cosmos 2150 Rocket 3.9 01:24:03 10° NNW 01:29:15 80° WSW 01:33:54 13° SSE
STARLINK-1331 3.0 01:26:18 10° W 01:29:26 75° N 01:32:33 10° E
STARLINK-1390 3.7 01:25:36 10° W 01:29:39 76° N 01:33:43 10° E
STARLINK-1344 3.0 01:26:36 10° W 01:29:44 75° N 01:32:51 10° E
STARLINK-1343 3.0 01:26:59 10° W 01:30:07 75° N 01:33:15 10° E
STARLINK-1346 3.0 01:27:15 10° W 01:30:25 75° N 01:33:35 10° E
STARLINK-1328 3.0 01:27:42 10° W 01:30:49 75° N 01:33:58 10° E
STARLINK-1354 3.0 01:28:00 10° W 01:31:07 75° N 01:34:15 10° E
STARLINK-1347 3.0 01:28:16 10° W 01:31:25 75° N 01:34:32 10° E
Spot 1 4.5 01:27:45 18° S 01:31:28 71° WSW 01:36:37 10° NNW
ATLAS CENTAUR R/B 4.3 01:29:31 10° NW 01:31:47 14° N 01:33:59 10° NNE
STARLINK-1357 3.0 01:28:42 10° W 01:31:50 75° N 01:34:58 10° E
STARLINK-1292 3.9 01:30:17 24° SSW 01:32:00 40° SSE 01:35:31 10° E
STARLINK-1335 3.0 01:29:00 10° W 01:32:07 75° N 01:35:15 10° E
STARLINK-1327 3.0 01:29:21 10° W 01:32:29 76° N 01:35:36 10° E
STARLINK-1340 3.0 01:29:39 10° W 01:32:46 76° N 01:35:53 10° E
Cosmos 1814 Rocket 4.0 01:29:12 20° SSW 01:32:59 84° ESE 01:38:19 10° NNE
STARLINK-1356 3.0 01:30:01 10° W 01:33:09 76° N 01:36:17 10° E
STARLINK-1345 3.0 01:30:20 10° W 01:33:28 76° N 01:36:36 10° E
STARLINK-1355 3.0 01:30:42 10° W 01:33:49 76° N 01:36:57 10° E
STARLINK-1321 3.0 01:31:02 10° W 01:34:11 76° N 01:37:18 10° E
Cosmos 2322 Rocket 3.8 01:29:50 10° SSE 01:34:13 24° ESE 01:38:36 10° NE
STARLINK-1358 3.0 01:31:26 10° W 01:34:33 76° N 01:37:41 10° E
SJ 16-02 3.4 01:32:21 10° WNW 01:34:48 15° W 01:36:30 12° WSW
STARLINK-1332 3.0 01:31:43 10° W 01:34:51 76° N 01:37:58 10° E
STARLINK-1348 3.0 01:32:03 10° W 01:35:11 76° N 01:38:18 10° E
STARLINK-1330 3.0 01:32:23 10° W 01:35:31 76° N 01:38:39 10° E
STARLINK-1365 3.7 01:31:34 10° W 01:35:40 77° N 01:39:45 10° E
STARLINK-1363 3.0 01:32:43 10° W 01:35:51 77° N 01:38:59 10° E
STARLINK-1337 3.0 01:33:06 10° W 01:36:13 77° N 01:39:21 10° E
STARLINK-1342 3.0 01:33:24 10° W 01:36:32 77° N 01:39:40 10° E
STARLINK-1364 3.0 01:33:45 10° W 01:36:53 77° N 01:40:00 10° E
SL-19 R/B 4.4 01:31:33 10° NNE 01:37:12 84° ESE 01:41:48 18° SSW
STARLINK-1376 3.0 01:34:05 10° W 01:37:13 77° N 01:40:20 10° E
STARLINK-1360 3.0 01:34:25 10° W 01:37:34 77° N 01:40:42 10° E
STARLINK-1268 3.4 01:36:30 27° SSW 01:37:38 40° SSE 01:40:35 10° E
Cosmos 2181 Rocket 4.2 01:31:15 10° NNW 01:37:40 66° W 01:42:49 16° S
STARLINK-1361 3.0 01:34:46 10° W 01:37:54 77° N 01:41:01 10° E
STARLINK-1367 3.0 01:35:01 10° W 01:38:11 78° N 01:41:21 10° E
STARLINK-1366 3.0 01:35:25 10° W 01:38:33 77° N 01:41:41 10° E
STARLINK-1289 3.8 01:36:52 23° SSW 01:38:49 43° SSE 01:42:25 10° E
Resurs 1-4 Rocket 2.8 01:35:15 10° NNE 01:40:23 46° E 01:44:54 13° S
STARLINK-1301 3.8 01:38:34 21° SW 01:40:46 46° SSE 01:44:29 10° ENE
Cosmos 1697 Rocket 3.1 01:36:19 15° SW 01:41:05 61° NW 01:46:43 10° NNE
STARLINK-66 3.0 01:39:31 22° SW 01:41:24 58° SSE 01:44:34 10° ENE
Cosmos 1400 Rocket 2.9 01:37:44 10° NNW 01:41:52 67° W 01:44:46 19° S
STARLINK-1303 3.7 01:40:12 22° SW 01:42:17 45° SSE 01:45:54 10° ENE
Cosmos 2278 3.7 01:38:01 18° SSW 01:42:24 82° WNW 01:48:08 10° NNE
Cosmos 841 Rocket 3.6 01:38:49 18° SSW 01:42:44 74° WNW 01:47:57 10° NNE
STARLINK-1316 3.3 01:41:30 25° SSW 01:42:52 43° SSE 01:45:53 10° E
Cosmos 1125 Rocket 3.5 01:37:38 10° NNW 01:42:53 86° ENE 01:48:06 10° SSE
DELTA 2 DEB (DPAF) 4.2 01:40:14 17° S 01:43:38 69° WSW 01:48:08 10° NNW
STARLINK-1257 3.3 01:42:21 25° SSW 01:43:46 44° SSE 01:46:47 10° E
STARLINK-1256 3.2 01:43:18 25° SSW 01:44:44 45° SSE 01:47:44 10° E
STARLINK-58 3.6 01:44:00 25° SSW 01:45:15 36° SSE 01:48:12 10° E
STARLINK-1213 3.2 01:44:09 25° SW 01:45:36 45° SSE 01:48:37 10° E
STARLINK-1312 3.7 01:43:32 21° SW 01:45:46 47° SSE 01:49:24 10° ENE
STARLINK-1338 3.6 01:41:48 10° W 01:45:48 78° N 01:49:48 10° E
STARLINK-52 2.8 01:42:51 10° WNW 01:46:03 67° SSW 01:49:14 10° ESE
STARLINK-1263 3.2 01:45:01 24° SW 01:46:30 46° SSE 01:49:31 10° E
STARLINK-1259 3.2 01:45:54 24° SW 01:47:26 46° SSE 01:50:27 10° E
STARLINK-1265 3.2 01:46:15 24° SW 01:47:50 47° SSE 01:50:53 10° E
STARLINK-1285 3.2 01:46:44 24° SW 01:48:18 47° SSE 01:51:20 10° E
Cosmos 1570 Rocket 4.4 01:45:18 16° SW 01:49:29 60° WNW 01:54:43 10° NNE
Cosmos 2227 Rocket 4.1 01:46:57 10° WNW 01:49:31 13° W 01:51:58 10° WSW
STARLINK-1296 3.1 01:48:29 23° SW 01:50:07 48° SSE 01:53:09 10° E
Cosmos 1763 Rocket 4.4 01:45:58 12° WSW 01:50:21 40° NW 01:55:09 10° NNE
STARLINK-1260 3.1 01:49:20 23° SW 01:51:00 49° SSE 01:54:03 10° E
STARLINK-1318 3.1 01:50:13 22° SW 01:51:55 49° SSE 01:54:58 10° E
STARLINK-75 3.0 01:50:26 18° SW 01:52:37 61° SSE 01:55:50 10° ENE
STARLINK-1275 3.1 01:51:06 22° SW 01:52:49 50° SSE 01:55:52 10° E
STARLINK-1309 3.1 01:51:57 22° SW 01:53:42 50° SSE 01:56:45 10° E
STARLINK-1371 3.6 01:50:05 10° W 01:54:03 80° N 01:58:01 10° E
Cosmos 1709 Rocket 4.5 01:49:44 16° SW 01:54:33 49° WNW 02:00:35 10° N
STARLINK-1282 3.1 01:52:49 21° SW 01:54:36 51° SSE 01:57:39 10° E
STARLINK-1313 3.0 01:53:45 20° SW 01:55:42 56° SSE 01:58:46 10° ENE
Cosmos 1758 Rocket 4.4 01:52:37 16° SW 01:55:42 39° WNW 01:59:54 10° N
STARLINK-48 4.3 01:53:49 20° SSW 01:55:55 35° SSE 01:59:29 10° E
Meteor 1-27 4.2 01:50:25 10° NNW 01:56:00 78° W 02:01:19 11° S
Cosmos 2298 Rocket 4.4 01:50:56 10° NW 01:56:02 48° WSW 02:00:18 14° S
STARLINK-1279 3.0 01:54:39 20° SW 01:56:38 57° SSE 01:59:43 10° ENE
Cosmos 2227 4.4 01:51:04 10° NW 01:56:43 58° WSW 02:02:21 10° S
STARLINK-1298 3.0 01:55:23 20° SW 01:57:16 53° SSE 02:00:19 10° ENE
STARLINK-1293 3.0 01:56:16 20° SW 01:58:11 53° SSE 02:01:16 10° ENE
STARLINK-80 3.5 01:55:29 17° SW 01:58:16 56° SSE 02:02:01 10° ENE
STARLINK-1341 3.6 01:54:28 10° W 01:58:27 81° N 02:02:26 10° E
STARLINK-1283 3.7 01:55:37 15° SW 01:58:52 59° SSE 02:02:57 10° ENE
GEOS 3 Rocket 3.6 01:54:00 10° SE 01:59:14 89° SW 02:04:36 10° NW
STARLINK 1040 2.4 01:56:43 10° W 01:59:16 76° N 02:01:50 10° ENE
Iridium 2 3.9 01:55:52 10° N 01:59:38 66° E 02:03:11 11° SSE
STARLINK-1255 3.0 01:58:01 19° SW 02:00:00 55° SSE 02:03:04 10° ENE
STARLINK-22 3.0 01:58:39 18° SW 02:00:52 59° SSE 02:04:02 10° ENE
SL-16 R/B 2.5 01:55:36 10° S 02:01:45 75° WSW 02:08:00 10° NNW
STARLINK-1311 2.7 02:00:03 19° SW 02:02:00 61° SSE 02:04:56 10° ENE
STARLINK-1374 3.6 01:58:56 10° W 02:02:57 82° N 02:06:58 10° E
STARLINK-1297 3.4 02:00:20 17° SW 02:02:57 55° SSE 02:06:30 10° ENE
Cosmos 1844 Rocket 4.0 01:57:38 10° NNW 02:03:01 43° NE 02:08:19 10° ESE
STARLINK-1339 3.6 02:03:06 10° W 02:07:05 84° N 02:11:04 10° E
NOSS 2-1 (E) 4.2 02:04:58 16° S 02:07:09 30° ESE 02:10:26 10° ENE
Cosmos-2242 4.4 02:05:16 10° NW 02:08:40 24° W 02:11:13 14° SW
SL-16 R/B 2.8 02:04:36 13° S 02:09:26 49° ESE 02:14:54 10° NE
STARLINK-42 2.8 02:08:30 13° WSW 02:11:15 77° SSE 02:14:23 10° ENE
MOZ.5/SAFIR/RUBIN 5/SL-8 4.1 02:07:56 15° S 02:11:36 47° W 02:16:07 10° NNW
STARLINK-1377 3.6 02:07:37 10° WNW 02:11:39 85° N 02:15:40 10° E
CZ-2D R/B 2.2 02:06:24 10° NNE 02:11:39 78° ESE 02:16:21 13° S
Cosmos 2221 2.5 02:07:25 10° NNW 02:11:49 86° WSW 02:16:12 10° S
STARLINK-1029 3.4 02:11:18 18° SW 02:13:18 44° SSE 02:16:21 10° E
STARLINK-60 3.9 02:11:02 10° W 02:13:46 26° SW 02:16:29 10° SSE
Cosmos 1953 Rocket 4.2 02:10:42 15° SW 02:14:03 44° WNW 02:18:16 10° N
STARLINK-34 3.0 02:11:58 17° SW 02:14:06 53° SSE 02:17:07 10° ENE
STARLINK-41 2.7 02:12:04 12° WSW 02:14:48 77° SSE 02:17:51 10° ENE
FALCON 9 DEB 3.0 02:11:54 10° WNW 02:15:21 65° SSW 02:18:46 10° ESE
STARLINK-1353 3.5 02:11:59 10° WNW 02:16:00 87° N 02:20:01 10° ESE
ATLAS 5 CENTAUR R/B 3.9 02:15:14 10° NNW 02:16:27 13° N 02:17:54 10° NE
GP-B 3.5 02:12:33 10° N 02:16:52 50° W 02:20:25 14° SSW
Nadezhda 3 Rocket 4.1 02:10:43 10° N 02:17:04 89° W 02:23:26 10° S
Cosmos 1315 Rocket 2.7 02:13:36 10° NNW 02:17:32 72° W 02:21:24 10° S
BREEZE-M DEB (TANK) 3.9 02:16:18 10° WSW 02:16:36 11° WSW 02:16:36 11° WSW
CZ-4C R/B 4.0 02:14:17 14° S 02:17:52 46° W 02:22:10 10° NNW
STARLINK-62 2.9 02:15:41 16° SW 02:17:55 55° SSE 02:20:55 10° ENE
STARLINK-1272 3.2 02:15:30 12° WSW 02:18:38 67° SSE 02:22:10 10° ENE
Cosmos 1842 Rocket 3.7 02:14:37 10° NNW 02:19:04 62° W 02:23:13 11° S
STARLINK-1375 3.5 02:16:21 10° WNW 02:20:23 89° N 02:24:24 10° ESE
USA 215 4.3 02:15:27 10° S 02:20:31 23° SW 02:25:36 10° WNW
STARLINK-1307 3.3 02:20:58 11° WSW 02:24:32 71° SSE 02:28:15 10° ENE
STARLINK-1350 3.5 02:20:42 10° WNW 02:24:44 89° SSW 02:28:46 10° ESE
Cosmos 540 Rocket 4.4 02:20:56 10° SW 02:25:39 39° NW 02:30:29 10° NNE
STARLINK-1290 3.3 02:24:22 10° WSW 02:28:03 73° SSE 02:31:47 10° ENE
STARLINK-1352 3.5 02:24:52 10° WNW 02:28:54 87° SSW 02:32:55 10° ESE
STARLINK-1276 4.5 02:27:56 14° SSW 02:31:04 35° SE 02:34:52 10° E
Cosmos 2058 3.3 02:27:07 10° S 02:31:17 65° E 02:35:29 10° NNE
Cosmos 2360 Rocket 3.4 02:26:39 10° S 02:31:39 34° ESE 02:36:42 10° NE
STARLINK-1368 3.5 02:29:33 10° WNW 02:33:36 85° SSW 02:37:38 10° ESE
STARLINK-1317 3.4 02:31:50 10° WSW 02:35:44 80° SSE 02:39:40 10° ENE
STARLINK-1305 4.4 02:32:42 13° SSW 02:35:59 37° SSE 02:39:50 10° E
STARLINK-1306 4.3 02:33:14 13° SW 02:36:39 40° SSE 02:40:35 10° E
STARLINK-55 3.0 02:33:46 10° W 02:36:59 83° N 02:40:12 10° ENE
STARLINK-1369 3.5 02:34:00 10° WNW 02:38:03 83° SSW 02:42:05 10° ESE
STARLINK-1274 3.1 02:34:48 10° WSW 02:38:21 80° SSE 02:41:55 10° ENE
CZ-4B R/B 3.6 02:33:51 10° NNE 02:39:08 87° WNW 02:44:26 10° SSW
Cosmos 1980 Rocket 3.0 02:33:54 10° WSW 02:39:15 44° NW 02:44:42 10° NNE
STARLINK-43 3.5 02:36:23 10° W 02:40:04 75° N 02:43:46 10° E
STARLINK-1262 4.3 02:37:30 12° SW 02:40:59 40° SSE 02:44:52 10° E
Cosmos 2074 Rocket 4.4 02:36:04 11° SSW 02:41:55 54° WNW 02:48:05 10° N
STARLINK-1372 3.4 02:38:10 10° WNW 02:42:11 80° SSW 02:46:10 10° ESE
STARLINK-1291 3.3 02:39:03 10° WSW 02:42:47 83° SSE 02:46:32 10° ENE
Cosmos 2333 Rocket 4.4 02:41:45 10° SE 02:45:33 19° E 02:49:21 10° ENE
STARLINK-1300 4.2 02:42:17 12° SW 02:45:55 42° SSE 02:49:52 10° ENE
STARLINK-1264 3.3 02:42:22 10° WSW 02:46:07 85° SSE 02:49:52 10° ENE
STARLINK-29 3.9 02:43:51 10° W 02:46:37 27° SSW 02:49:22 10° SSE
STARLINK-1378 3.5 02:42:53 10° WNW 02:46:56 78° SSW 02:50:57 10° ESE
Meteor 1-28 Rocket 4.1 02:44:19 10° SSE 02:47:58 51° ENE 02:51:36 10° N
STARLINK-28 3.1 02:45:19 10° W 02:48:32 77° N 02:51:45 10° E
ADEOS II 2.4 02:44:05 10° NNE 02:49:21 69° ESE 02:54:36 10° S
STARLINK-1267 3.3 02:45:45 10° WSW 02:49:29 87° SSE 02:53:14 10° ENE
Cosmos 2219 Rocket 4.4 02:45:55 10° SE 02:49:39 19° E 02:53:23 10° ENE
IRIDIUM 106 4.4 02:44:51 10° S 02:50:04 84° W 02:55:21 10° N
STARLINK-1295 4.2 02:47:03 11° SW 02:50:52 45° SSE 02:54:50 10° ENE
SL-4 R/B 3.4 02:47:26 10° W 02:51:20 25° SW 02:55:08 10° SSE
STARLINK-64 3.4 02:47:51 10° SW 02:51:23 58° SSE 02:54:55 10° ENE
STARLINK-1379 3.5 02:47:23 10° WNW 02:51:26 75° SSW 02:55:27 10° ESE
Cosmos 2263 Rocket 3.2 02:47:31 10° NW 02:52:09 27° WSW 02:56:45 10° SSW
IRS-1D 3.6 02:46:51 10° NNE 02:52:11 88° ESE 02:57:22 10° SSW
AQUA 4.0 02:47:34 10° N 02:52:19 67° WNW 02:57:02 10° SSW
IDEFIX/ARIANE 42P 4.4 02:48:03 10° NNE 02:52:35 29° E 02:57:06 10° SSE
Cosmos 1606 4.2 02:49:31 10° N 02:53:04 37° ENE 02:56:37 10° SE
STARLINK-1329 3.5 02:51:13 10° WNW 02:55:16 73° SSW 02:59:18 10° ESE
STARLINK-1287 4.1 02:51:51 10° SW 02:55:49 47° SSE 02:59:50 10° ENE
STARLINK-1207 3.4 02:52:32 10° WSW 02:56:17 90° NNW 03:00:03 10° ENE
BREEZE-M R/B 2.5 02:53:29 10° W 02:57:29 48° SSW 03:00:03 10° ESE
ERS-2 2.8 02:53:59 10° SSE 02:57:35 59° ENE 03:01:13 10° N
STARLINK-33 3.0 02:55:16 10° W 02:58:23 76° N 03:01:31 10° E
ARIANE 5 R/B 3.2 02:53:36 10° NNE 02:58:31 51° E 03:03:22 10° S
NPP 4.0 02:53:28 10° N 02:58:44 55° WNW 03:03:59 10° SW
STARLINK-1266 3.4 02:55:56 10° WSW 02:59:41 88° NNW 03:03:28 10° ENE
STARLINK-1362 3.5 02:55:46 10° WNW 02:59:48 70° SSW 03:03:50 10° ESE
Cosmos 2341 Rocket 4.2 02:53:59 10° S 03:00:21 85° E 03:06:42 10° N
Cosmos 1892 2.8 02:57:09 10° SSW 03:00:54 65° WNW 03:04:41 10° N
STARLINK-1320 3.0 02:58:05 10° W 03:01:08 49° SSW 03:04:09 10° SE
STARLINK-1322 3.1 02:58:26 10° W 03:01:29 48° SSW 03:04:30 10° SE
STARLINK-1324 3.1 02:58:46 10° W 03:01:47 48° SSW 03:04:49 10° SE
STARLINK-1294 3.1 02:59:04 10° W 03:02:07 48° SSW 03:05:09 10° SE
STARLINK-1261 3.1 02:59:27 10° W 03:02:29 48° SSW 03:05:31 10° SE
STARLINK-1325 3.1 02:59:48 10° W 03:02:50 47° SSW 03:05:52 10° SE
NOSS 2-1 (C) 3.1 02:59:33 10° SW 03:02:57 78° NW 03:06:48 10° NE
STARLINK-26 3.3 02:59:36 10° W 03:03:02 76° N 03:06:30 10° E
STARLINK-1284 3.4 02:59:20 10° WSW 03:03:06 87° N 03:06:53 10° ENE
STARLINK-1333 3.1 03:00:10 10° W 03:03:12 47° SSW 03:06:13 10° SE
STARLINK-1334 3.1 03:00:28 10° W 03:03:29 47° SSW 03:06:30 10° SE
STARLINK-1326 3.1 03:00:47 10° W 03:03:49 47° SSW 03:06:49 10° SE
STARLINK-1323 3.1 03:01:10 10° W 03:04:11 47° SSW 03:07:12 10° SE
STARLINK-1373 3.5 03:00:15 10° WNW 03:04:15 67° SSW 03:08:15 10° ESE
STARLINK-1349 3.1 03:01:28 10° W 03:04:29 46° SSW 03:07:30 10° SE
STARLINK-1299 3.9 03:00:30 10° SW 03:04:41 58° SSE 03:08:53 10° ENE
Cosmos 1869 4.5 03:01:33 10° NNW 03:04:48 26° W 03:08:02 10° SSW
STARLINK-1336 3.1 03:01:47 10° W 03:04:48 46° SSW 03:07:49 10° SE
STARLINK-1331 3.1 03:02:10 10° W 03:05:11 46° SSW 03:08:12 10° SE
STARLINK-1344 3.1 03:02:29 10° W 03:05:29 46° SSW 03:08:29 10° SE
IRS-1C 4.3 03:00:10 10° NNE 03:05:33 76° ESE 03:10:53 10° S
STARLINK-1302 3.9 03:01:42 10° SW 03:05:44 53° SSE 03:09:47 10° ENE
STARLINK-1343 3.1 03:02:52 10° W 03:05:52 46° SSW 03:08:52 10° SE
STARLINK-1346 3.1 03:03:07 10° W 03:06:10 46° SSW 03:09:13 10° SE
STARLINK-1258 3.4 03:02:47 10° W 03:06:33 85° N 03:10:19 10° ENE
STARLINK-1328 3.1 03:03:34 10° W 03:06:35 45° SSW 03:09:36 10° SE
STARLINK-1354 3.1 03:03:52 10° W 03:06:53 45° SSW 03:09:52 10° SE
Cosmos 1844 3.9 03:01:04 10° NNW 03:06:56 88° ENE 03:12:44 10° SSE
STARLINK-1347 3.1 03:04:09 10° W 03:07:10 45° SSW 03:10:09 10° SE
STARLINK-1357 3.2 03:04:35 10° W 03:07:36 45° SSW 03:10:36 10° SE
NOSS 2-1 (D) 3.2 03:04:28 10° SW 03:07:51 71° NW 03:11:43 10° NE
STARLINK-1335 3.2 03:04:52 10° W 03:07:52 44° SSW 03:10:53 10° SE
STARLINK-1327 3.2 03:05:13 10° W 03:08:13 44° SSW 03:11:13 10° SE
STARLINK-1340 3.2 03:05:31 10° W 03:08:31 44° SSW 03:11:30 10° SE
STARLINK-1356 3.2 03:05:54 10° W 03:08:55 44° SSW 03:11:53 10° SE
STARLINK-1390 3.5 03:04:55 10° WNW 03:08:56 64° SSW 03:12:57 10° ESE
STARLINK-1345 3.2 03:06:13 10° W 03:09:13 44° SSW 03:12:12 10° SE
STARLINK-1355 3.2 03:06:34 10° W 03:09:35 43° SSW 03:12:33 10° SE
STARLINK-1321 3.2 03:06:55 10° W 03:09:55 43° SSW 03:12:54 10° SE
STARLINK-1292 3.4 03:06:14 10° W 03:10:00 84° N 03:13:47 10° ENE
STARLINK-1358 3.2 03:07:18 10° W 03:10:18 43° SSW 03:13:17 10° SE
STARLINK-1332 3.2 03:07:36 10° W 03:10:35 43° SSW 03:13:33 10° SE
STARLINK-1273 3.9 03:06:38 10° SW 03:10:41 56° SSE 03:14:45 10° ENE
CZ-4C R/B 3.9 03:05:33 10° W 03:10:44 34° NNW 03:16:53 10° NE
STARLINK-1348 3.2 03:07:56 10° W 03:10:55 43° SSW 03:13:54 10° SE
STARLINK-1330 3.2 03:08:15 10° W 03:11:15 42° SSW 03:14:13 10° SE
STARLINK-1363 3.2 03:08:36 10° W 03:11:34 42° SSW 03:14:33 10° SE
STARLINK-1337 3.2 03:08:58 10° W 03:11:57 42° SSW 03:14:56 10° SE
ATLAS CENTAUR R/B 4.3 03:09:50 10° NNW 03:12:10 15° NNE 03:14:27 10° NE
STARLINK-1342 3.2 03:09:17 10° W 03:12:16 42° SSW 03:15:14 10° SE
STARLINK-1364 3.2 03:09:37 10° W 03:12:37 42° SSW 03:15:35 10° SE
STARLINK-1376 3.2 03:09:58 10° W 03:12:56 41° SSW 03:15:55 10° SE
STARLINK-1268 3.0 03:10:10 10° W 03:13:16 77° N 03:16:21 10° E
STARLINK-1360 3.3 03:10:18 10° W 03:13:17 41° SSW 03:16:16 10° SE
STARLINK-1361 3.3 03:10:39 10° W 03:13:37 41° SSW 03:16:35 10° SE
STARLINK-1367 3.3 03:10:55 10° W 03:13:56 41° SSW 03:16:55 10° SE
STARLINK-1366 3.3 03:11:18 10° W 03:14:17 41° SSW 03:17:14 10° SE
STARLINK-1365 3.6 03:10:55 10° WNW 03:14:56 60° SSW 03:18:57 10° SE
STARLINK-61 4.0 03:11:10 10° SW 03:14:56 47° SSE 03:18:44 10° ENE
Cosmos 1151 Rocket 3.6 03:11:12 10° N 03:15:35 63° ENE 03:19:56 10° SSE
STARLINK-1288 3.8 03:11:35 10° SW 03:15:39 59° SSE 03:19:44 10° ENE
Cosmos 1461 3.6 03:11:57 10° NW 03:16:36 70° NE 03:21:19 10° SE
Cosmos 2322 Rocket 2.3 03:12:09 10° SW 03:17:45 71° WNW 03:23:24 10° NNE
